Starlink 35795

operational
NORAD ID: 66369 Int'l Des: 2025-254 Owner: SPXS Country: US Constellation: starlink
LEOCIRCULAR

About Starlink 35795

Description loading...

Live Position

Loading 3D Globe...

Upcoming Passes

Altitude History

Altitude vs Time

uPlot chart will show altitude changes over time

Two-Line Element Set

1 66369U 25254X 26037.32010300 .00071824 00000-0 24137-2 0 9996
2 66369 53.1619 15.9350 0001882 81.6386 278.4829 15.30201423 14209
Epoch: Feb 6, 2026 • Age: 17 hours

Current Status

Altitude 475.8 km
Velocity 7.63 km/s
Sub-Earth Point 30.84°N, 114.66°W
Launch Date Nov 6, 2025
Age 0.2 years
Type internet

Technical Details

Classification Payload
Mass 575.00 kg
Dry Mass 530.00 kg
Total Mass 575.00 kg
Length 0.30 m
Diameter 4.10 m
Span 29.00 m
Shape Box + pan
Manufacturer SPXS
Bus Type Starlink V2MO
Phase Status In Orbit
Owner/State SPXS/US

Large Constellations

Loading constellations...